#timestamp,LO_Frequency,Hit,StdDev 
1550635215.4,286046997.0,N
1550635235.2,286046998.8,N
1550635255.1,286046997.7,N
1550635256.0,286046997.7,N
1550635275.8,286046998.5,N
1550635295.7,286047002.6,N
1550635315.5,286046999.7,N
1550635335.3,286046999.8,N
1550635355.2,286047000.4,N
1550635375.0,286047002.3,N
1550635375.9,286047002.3,N
1550635395.8,286047000.7,N
1550635415.6,286046998.3,N
1550635435.4,286046998.9,N
1550635455.3,286046999.2,N
1550635475.1,286046998.8,N
1550635495.8,286046996.7,N
1550635515.7,286046996.5,N
1550635535.5,286046996.7,N
1550635555.5,286046997.5,N
1550635575.4,286046994.9,Y
1550635595.2,286046997.4,P
1550635615.0,286046997.1,P
1550635615.9,286046997.1,N
1550635635.8,286046999.1,N
1550635655.6,286046998.9,N
1550635675.5,286046999.4,N
1550635695.3,286046998.4,N
1550635715.1,286046998.2,N
1550635735.9,286046998.8,N
1550635755.7,286046997.7,N
1550635775.6,286046997.2,Y
1550635795.4,286046999.8,P
1550635815.2,286047001.6,N
1550635835.1,286046999.8,N
1550635836.0,286046999.8,N
1550635855.8,286047001.0,N
1550635875.6,286046999.8,N
1550635895.5,286047001.8,N
1550635915.3,286047003.6,Y
1550635935.2,286047003.2,P
1550635955.9,286047001.7,N
1550635975.7,286047001.7,N
1550635995.6,286047004.2,Y
1550636015.4,286047002.4,P
1550636035.2,286047000.4,N
1550636055.1,286047001.1,N
1550636056.0,286047001.1,N
1550636075.8,286047002.7,Y
1550636095.7,286046998.8,P
1550636115.5,286046998.5,N
1550636135.3,286047000.0,N
1550636155.2,286047001.0,N
1550636175.0,286046998.2,N
1550636175.9,286046998.2,N
1550636195.8,286046996.8,N
1550636245.6,286047000.9,E
1550636255.5,286046998.1,N
1550636275.4,286047000.5,P
1550636295.2,286047000.9,N
1550636315.1,286047000.2,N
1550636316.0,286047000.2,N
1550636335.8,286047004.2,Y
1550636355.6,286047003.5,P
1550636375.5,286047002.7,N
1550636395.3,286047003.9,N
1550636415.2,286047003.7,N
1550636435.9,286047002.6,N
1550636455.7,286047001.9,N
1550636475.6,286047002.4,N
1550636495.4,286046999.7,N
1550636515.3,286047002.7,N
1550636535.1,286047001.9,N
1550636536.0,286047001.9,N
1550636555.8,286047001.4,N
1550636575.7,286047004.8,Y
1550636595.5,286047000.4,P
1550636615.3,286046997.6,N
1550636635.2,286046997.6,N
1550636655.0,286046995.6,N
1550636655.9,286046995.6,N
1550636675.8,286046998.9,N
1550636695.6,286046999.5,N
1550636715.4,286046996.5,N
1550636735.3,286047000.5,N
1550636755.1,286047002.5,N
1550636775.8,286047003.0,N
1550636795.7,286047005.9,N
1550636815.5,286047001.3,N
1550636835.4,286047000.5,N
1550636855.2,286047001.1,N
1550636875.0,286046998.2,N
1550636875.9,286046998.2,N
1550636895.8,286046999.7,N
1550636915.6,286047002.8,N
1550636935.5,286047001.3,N
1550636955.3,286047004.4,N
1550636975.1,286047004.3,N
1550636995.9,286047002.0,N
1550637015.7,286047001.8,N
1550637035.5,286047003.2,N
1550637055.4,286047002.2,N
1550637075.2,286047002.8,N
1550637095.0,286047002.3,N
1550637096.0,286047002.3,N
1550637115.8,286047002.3,N
1550637135.6,286047003.5,N
1550637155.5,286047004.4,N
1550637175.3,286047004.7,N
1550637195.1,286047005.7,N
1550637215.9,286047003.6,N
1550637235.7,286047003.8,N
1550637255.6,286047003.6,N
1550637275.4,286047001.4,N
1550637295.2,286047001.5,N
1550637315.1,286047003.6,N
1550637316.0,286047003.6,N
1550637335.8,286047003.4,N
1550637355.6,286047005.7,Y
1550637375.5,286047003.9,P
1550637395.3,286047000.4,N
1550637415.2,286047001.0,N
1550637435.9,286047001.0,N
1550637455.7,286046998.2,N
1550637475.6,286046999.4,N
1550637495.4,286046998.9,N
1550637515.2,286046997.2,N
1550637535.1,286046996.6,N
1550637536.0,286046996.6,N
1550637555.8,286046999.1,N
1550637575.7,286047000.9,N
1550637595.5,286047003.9,N
1550637615.3,286047003.1,N
1550637635.2,286047005.3,N
1550637655.0,286047002.9,N
1550637655.9,286047002.9,N
1550637675.7,286047003.2,N
1550637695.6,286047001.7,N
1550637715.4,286047003.3,N
1550637735.3,286047005.4,N
1550637755.1,286047005.6,N
1550637756.0,286047005.6,N
1550637775.8,286047001.9,N
1550637795.7,286047000.9,N
1550637815.5,286047004.1,N
1550637835.3,286047005.8,N
1550637855.2,286047000.4,N
1550637875.0,286047002.5,N
1550637875.9,286047002.5,N
1550637895.8,286047001.7,N
1550637915.6,286047003.9,N
1550637935.4,286047003.1,N
1550637955.3,286047003.4,N
1550637975.1,286047002.8,N
1550637995.9,286046999.7,N
1550638015.7,286047001.4,N
1550638035.5,286047003.1,N
1550638055.4,286047005.3,N
1550638075.2,286047003.7,N
1550638095.1,286047002.4,N
1550638096.0,286047002.4,N
1550638115.8,286047000.5,N
1550638135.6,286047000.0,N
1550638155.5,286047001.2,N
1550638175.3,286047002.5,N
1550638195.2,286047002.1,N
1550638215.9,286047004.0,N
1550638235.7,286047004.2,N
1550638255.6,286047001.4,N
1550638275.4,286047001.9,N
1550638295.2,286047004.0,N
1550638315.1,286046999.7,N
1550638316.0,286046999.7,N
1550638335.8,286047000.1,N
1550638355.7,286047003.2,N
1550638375.5,286047003.7,N
1550638395.4,286047000.1,N
1550638415.2,286047001.5,N
1550638435.0,286047001.5,N
1550638435.9,286047001.5,N
1550638455.8,286047003.9,N
1550638475.6,286047003.9,N
1550638495.4,286047003.0,N
1550638515.3,286047005.6,Y
1550638535.1,286047004.3,P
1550638555.9,286046998.4,N
1550638575.7,286046998.8,N
1550638595.5,286046997.0,N
1550638615.4,286046996.9,N
1550638635.2,286046998.7,N
1550638655.1,286046999.9,N
1550638656.0,286046999.9,N
1550638675.8,286047000.4,N
1550638695.6,286046998.5,N
1550638715.5,286047000.2,N
1550638735.3,286047000.5,N
1550638755.1,286047002.3,N
1550638775.9,286047002.6,N
1550638795.7,286047002.2,N
